• In India
  • List of Countries
  • For 7 days
  • Water Temperature
  • Satellite Maps
  • Weather Map
  • Weather Widgets
  • user-avatar
    Login

    Hourly Weather Shaki

    Today, 23 October, Monday

    Time Temperature Precipitation Wind Pressure Humidity
    00:00 +14°C° 0 mm 4 mps 731 mmHg 35%
    01:00 +14°C° 0 mm 4 mps 732 mmHg 38%
    02:00 +14°C° 0 mm 4 mps 732 mmHg 41%
    03:00 +14°C° 0 mm 4 mps 731 mmHg 42%
    04:00 +14°C° 0 mm 4 mps 732 mmHg 45%
    05:00 +13°C° 0 mm 4 mps 732 mmHg 47%
    06:00 +13°C° 0 mm 3 mps 733 mmHg 50%
    07:00 +15°C° 0 mm 4 mps 733 mmHg 47%
    08:00 +17°C° 0 mm 4 mps 734 mmHg 44%
    09:00 +19°C° 0 mm 4 mps 734 mmHg 40%
    10:00 +20°C° 0 mm 4 mps 734 mmHg 39%
    11:00 +21°C° 0 mm 4 mps 735 mmHg 38%
    12:00 +21°C° 0 mm 3 mps 735 mmHg 37%
    13:00 +21°C° 0 mm 3 mps 735 mmHg 36%
    14:00 +21°C° 0 mm 2 mps 736 mmHg 35%
    15:00 +21°C° 0 mm 2 mps 736 mmHg 34%
    16:00 +20°C° 0 mm 2 mps 736 mmHg 37%
    17:00 +18°C° 0 mm 2 mps 737 mmHg 39%
    18:00 +17°C° 0 mm 2 mps 738 mmHg 42%
    19:00 +16°C° 0 mm 3 mps 738 mmHg 50%
    20:00 +14°C° 0 mm 4 mps 738 mmHg 58%
    21:00 +14°C° 0 mm 4 mps 738 mmHg 66%
    22:00 +13°C° 0 mm 4 mps 738 mmHg 69%
    23:00 +13°C° 0 mm 3 mps 738 mmHg 72%

    Tomorrow, 24 October, Tuesday

    Time Temperature Precipitation Wind Pressure Humidity
    00:00 +13°C° 0 mm 3 mps 738 mmHg 75%
    01:00 +13°C° 0 mm 3 mps 738 mmHg 74%
    02:00 +14°C° 0 mm 2 mps 738 mmHg 72%
    03:00 +14°C° 0 mm 2 mps 738 mmHg 70%
    04:00 +13°C° 0 mm 2 mps 738 mmHg 70%
    05:00 +13°C° 0 mm 1 mps 738 mmHg 69%
    06:00 +13°C° 0 mm 1 mps 738 mmHg 69%
    07:00 +14°C° 0 mm 1 mps 738 mmHg 63%
    08:00 +16°C° 0 mm 1 mps 738 mmHg 58%
    09:00 +17°C° 0 mm 2 mps 738 mmHg 53%
    10:00 +18°C° 0 mm 2 mps 737 mmHg 48%
    11:00 +19°C° 0 mm 2 mps 737 mmHg 44%
    12:00 +20°C° 0 mm 2 mps 737 mmHg 39%
    13:00 +20°C° 0 mm 2 mps 737 mmHg 38%
    14:00 +20°C° 0 mm 2 mps 736 mmHg 36%
    15:00 +21°C° 0 mm 2 mps 736 mmHg 35%
    16:00 +19°C° 0 mm 2 mps 736 mmHg 39%
    17:00 +19°C° 0 mm 1 mps 737 mmHg 42%
    18:00 +16°C° 0 mm 1 mps 737 mmHg 46%
    19:00 +16°C° 0 mm 1 mps 737 mmHg 46%
    20:00 +16°C° 0 mm 1 mps 737 mmHg 46%
    21:00 +15°C° 0 mm 1 mps 738 mmHg 46%
    22:00 +15°C° 0 mm 1 mps 738 mmHg 47%
    23:00 +15°C° 0 mm 1 mps 738 mmHg 48%

    Day after tomorrow, 25 October, Wednesday

    Time Temperature Precipitation Wind Pressure Humidity
    00:00 +14°C° 0 mm 1 mps 738 mmHg 50%
    01:00 +14°C° 0 mm 1 mps 738 mmHg 51%
    02:00 +14°C° 0 mm 1 mps 738 mmHg 53%
    03:00 +14°C° 0 mm 1 mps 738 mmHg 54%
    04:00 +14°C° 0 mm 1 mps 738 mmHg 54%
    05:00 +14°C° 0 mm 2 mps 738 mmHg 54%
    06:00 +14°C° 0 mm 2 mps 738 mmHg 54%
    07:00 +16°C° 0 mm 2 mps 738 mmHg 49%
    08:00 +18°C° 0 mm 2 mps 738 mmHg 44%
    09:00 +20°C° 0 mm 2 mps 738 mmHg 39%
    10:00 +21°C° 0 mm 2 mps 738 mmHg 35%
    11:00 +23°C° 0 mm 2 mps 738 mmHg 31%
    12:00 +24°C° 0 mm 2 mps 737 mmHg 28%
    13:00 +25°C° 0 mm 2 mps 737 mmHg 27%
    14:00 +25°C° 0 mm 2 mps 737 mmHg 26%
    15:00 +25°C° 0 mm 2 mps 737 mmHg 26%
    16:00 +23°C° 0 mm 2 mps 737 mmHg 29%
    17:00 +20°C° 0 mm 2 mps 737 mmHg 32%
    18:00 +20°C° 0 mm 1 mps 737 mmHg 36%
    19:00 +18°C° 0 mm 2 mps 737 mmHg 37%
    20:00 +18°C° 0 mm 2 mps 737 mmHg 38%
    21:00 +18°C° 0 mm 2 mps 737 mmHg 39%
    22:00 +17°C° 0 mm 2 mps 737 mmHg 40%
    23:00 +17°C° 0 mm 2 mps 737 mmHg 40%

    26 October, Thursday

    Time Temperature Precipitation Wind Pressure Humidity
    00:00 +17°C° 0 mm 2 mps 736 mmHg 41%
    01:00 +17°C° 0 mm 2 mps 736 mmHg 41%
    02:00 +17°C° 0 mm 2 mps 736 mmHg 40%
    03:00 +17°C° 0 mm 2 mps 735 mmHg 39%
    04:00 +16°C° 0 mm 3 mps 735 mmHg 38%
    05:00 +16°C° 0 mm 3 mps 735 mmHg 37%
    06:00 +16°C° 0 mm 3 mps 735 mmHg 37%
    07:00 +18°C° 0 mm 3 mps 735 mmHg 33%
    08:00 +20°C° 0 mm 3 mps 735 mmHg 30%
    09:00 +22°C° 0 mm 3 mps 735 mmHg 26%
    10:00 +25°C° 0 mm 4 mps 735 mmHg 24%
    11:00 +26°C° 0 mm 4 mps 735 mmHg 22%
    12:00 +27°C° 0 mm 4 mps 735 mmHg 19%
    13:00 +27°C° 0 mm 4 mps 735 mmHg 19%
    14:00 +27°C° 0 mm 4 mps 735 mmHg 19%
    15:00 +27°C° 0 mm 4 mps 735 mmHg 19%
    16:00 +25°C° 0 mm 4 mps 735 mmHg 21%
    17:00 +22°C° 0 mm 3 mps 735 mmHg 23%
    18:00 +20°C° 0 mm 3 mps 735 mmHg 25%
    19:00 +20°C° 0 mm 3 mps 735 mmHg 26%
    20:00 +19°C° 0 mm 2 mps 735 mmHg 26%
    21:00 +18°C° 0 mm 2 mps 736 mmHg 27%
    22:00 +18°C° 0 mm 2 mps 736 mmHg 29%
    23:00 +17°C° 0 mm 2 mps 736 mmHg 32%

    27 October, Friday

    Time Temperature Precipitation Wind Pressure Humidity
    00:00 +16°C° 0 mm 2 mps 736 mmHg 34%
    01:00 +16°C° 0 mm 2 mps 736 mmHg 38%
    02:00 +15°C° 0 mm 2 mps 736 mmHg 42%
    03:00 +15°C° 0 mm 2 mps 736 mmHg 45%
    04:00 +15°C° 0 mm 2 mps 736 mmHg 48%
    05:00 +14°C° 0 mm 2 mps 736 mmHg 51%
    06:00 +14°C° 0 mm 1 mps 737 mmHg 54%
    07:00 +15°C° 0 mm 2 mps 737 mmHg 52%
    08:00 +17°C° 0 mm 2 mps 737 mmHg 50%
    09:00 +18°C° 0 mm 2 mps 737 mmHg 47%
    10:00 +19°C° 0 mm 2 mps 737 mmHg 46%
    11:00 +20°C° 0 mm 3 mps 737 mmHg 44%
    12:00 +21°C° 0 mm 3 mps 737 mmHg 42%
    13:00 +21°C° 0 mm 3 mps 737 mmHg 42%
    14:00 +21°C° 0 mm 3 mps 736 mmHg 41%
    15:00 +20°C° 0 mm 3 mps 736 mmHg 41%
    16:00 +19°C° 0 mm 2 mps 736 mmHg 45%
    17:00 +17°C° 0 mm 2 mps 737 mmHg 49%
    18:00 +16°C° 0 mm 1 mps 737 mmHg 53%
    19:00 +16°C° 0 mm 2 mps 737 mmHg 56%
    20:00 +15°C° 0 mm 2 mps 737 mmHg 59%
    21:00 +15°C° 0 mm 2 mps 737 mmHg 62%
    22:00 +14°C° 0 mm 2 mps 737 mmHg 67%
    23:00 +14°C° 0 mm 2 mps 737 mmHg 71%

    28 October, Saturday

    Time Temperature Precipitation Wind Pressure Humidity
    00:00 +13°C° 0 mm 2 mps 736 mmHg 76%
    01:00 +13°C° 0 mm 2 mps 736 mmHg 77%
    02:00 +13°C° 0 mm 2 mps 736 mmHg 77%
    03:00 +13°C° 0 mm 1 mps 736 mmHg 78%
    04:00 +12°C° 0 mm 1 mps 735 mmHg 78%
    05:00 +12°C° 0 mm 1 mps 735 mmHg 77%
    06:00 +12°C° 0 mm 1 mps 735 mmHg 76%
    07:00 +14°C° 0 mm 2 mps 735 mmHg 69%
    08:00 +15°C° 0 mm 2 mps 735 mmHg 62%
    09:00 +17°C° 0 mm 2 mps 735 mmHg 55%
    10:00 +18°C° 0 mm 3 mps 734 mmHg 49%
    11:00 +19°C° 0 mm 3 mps 734 mmHg 44%
    12:00 +21°C° 0 mm 4 mps 733 mmHg 38%
    13:00 +21°C° 0 mm 4 mps 733 mmHg 37%
    14:00 +21°C° 0 mm 3 mps 732 mmHg 36%
    15:00 +21°C° 0 mm 3 mps 731 mmHg 35%
    16:00 +20°C° 0 mm 2 mps 732 mmHg 38%
    17:00 +19°C° 0 mm 2 mps 732 mmHg 41%
    18:00 +18°C° 0 mm 2 mps 732 mmHg 43%
    19:00 +17°C° 0 mm 2 mps 732 mmHg 44%
    20:00 +17°C° 0 mm 2 mps 732 mmHg 45%
    21:00 +17°C° 0 mm 2 mps 731 mmHg 46%
    22:00 +17°C° 0 mm 2 mps 731 mmHg 47%
    23:00 +17°C° 0 mm 2 mps 731 mmHg 49%

    29 October, Sunday

    Time Temperature Precipitation Wind Pressure Humidity
    00:00 +17°C° 0 mm 2 mps 731 mmHg 50%
    01:00 +17°C° 0 mm 2 mps 730 mmHg 50%
    02:00 +17°C° 0 mm 2 mps 730 mmHg 50%
    03:00 +17°C° 0 mm 2 mps 730 mmHg 50%
    04:00 +17°C° 0 mm 2 mps 730 mmHg 49%
    05:00 +17°C° 0 mm 2 mps 730 mmHg 48%
    06:00 +17°C° 0 mm 2 mps 730 mmHg 47%
    07:00 +18°C° 0 mm 3 mps 730 mmHg 44%
    08:00 +19°C° 0 mm 4 mps 730 mmHg 41%
    09:00 +20°C° 0 mm 4 mps 731 mmHg 38%
    10:00 +21°C° 0 mm 5 mps 731 mmHg 36%
    11:00 +23°C° 0 mm 5 mps 731 mmHg 34%
    12:00 +25°C° 0 mm 5 mps 731 mmHg 31%
    13:00 +25°C° 0 mm 5 mps 731 mmHg 31%
    14:00 +25°C° 0 mm 5 mps 731 mmHg 30%
    15:00 +25°C° 0 mm 4 mps 731 mmHg 29%
    16:00 +22°C° 0 mm 4 mps 731 mmHg 31%
    17:00 +21°C° 0 mm 3 mps 731 mmHg 33%
    18:00 +19°C° 0 mm 2 mps 732 mmHg 35%
    19:00 +19°C° 0 mm 2 mps 732 mmHg 36%
    20:00 +18°C° 0 mm 2 mps 732 mmHg 37%
    21:00 +18°C° 0 mm 2 mps 732 mmHg 37%
    22:00 +17°C° 0 mm 2 mps 732 mmHg 39%
    23:00 +17°C° 0 mm 2 mps 732 mmHg 41%
    Show more